This demonstration page uses our WeatherBlox Daily Observations layout. Learn more.

Left ArrowRight Arrow

Hourly Observations for July 17, 2021

Temp ( °F °C ) Dew Point ( °F °C ) Humidity (%) Winds ( mph kmh ) Pressure ( in mb ) Visibility ( mi km ) Precip ( " mm )
12:15 am 00:15 Clear 70 21 68 19.8 93 93 SE 8 13 29.93 1014 10 16 0.00 0.00
12:35 am 00:35 Clear 70 21.2 68 19.8 92 92 SE 9 15 29.93 1013 10 16 0.00 0.00
12:55 am 00:55 Clear 70 21.1 67 19.7 92 92 SE 9 15 29.93 1013 10 16 0.00 0.00
1:15 am 01:15 Clear 70 21 67 19.5 91 91 SE 7 11 29.93 1014 10 16 0.00 0.00
1:35 am 01:35 Clear 69 20.7 67 19.3 92 92 SSE 8 13 29.93 1014 10 16 0.00 0.00
1:55 am 01:55 Clear 69 20.7 67 19.5 93 93 SE 9 15 29.93 1014 10 16 0.00 0.00
2:15 am 02:15 Clear 69 20.6 67 19.5 93 93 SSE 8 13 29.94 1014 10 16 0.00 0.00
2:35 am 02:35 Clear 69 20.5 67 19.5 94 94 SE 10 17 29.93 1014 10 16 0.00 0.00
2:55 am 02:55 Clear 69 20.6 67 19.7 95 95 SSE 7 11 29.93 1014 10 16 0.00 0.00
3:15 am 03:15 Clear 69 20.7 68 19.8 95 95 SE 9 15 29.93 1014 10 16 0.00 0.00
3:35 am 03:35 Mostly Cloudy 69 20.8 68 20 95 95 NW 12 19 29.98 1015 10 16 0.00 0.00
3:55 am 03:55 Cloudy 70 21 68 20.1 95 95 NNW 7 11 29.98 1015 10 16 0.00 0.00
4:15 am 04:15 Cloudy 69 20.4 66 19.1 92 92 NNW 20 31 29.99 1016 4 6 0.11 2.79
4:35 am 04:35 Cloudy with Strong Thunderstorms 65 18.6 64 17.7 95 95 NNW 23 37 30.03 1017 3 4 0.39 9.91
4:55 am 04:55 Cloudy with Strong Thunderstorms 65 18.4 64 17.6 95 95 N 17 28 30.06 1018 2 3 0.83 21.08
5:15 am 05:15 Cloudy with Thunderstorms 65 18.5 64 17.6 95 95 N 7 11 30.06 1018 10 16 0.03 0.76
5:35 am 05:35 Cloudy with Nearby Thunderstorms 65 18.5 64 17.7 95 95 E 8 13 30.04 1017 10 16 0.06 1.52
5:55 am 05:55 Cloudy with Light Rain 65 18.3 64 17.7 96 96 E 23 37 29.97 1015 10 16 0.09 2.29
6:15 am 06:15 Cloudy with Light Rain 66 18.9 65 18.2 96 96 E 21 33 29.91 1013 10 16 0.01 0.25
6:35 am 06:35 Partly Cloudy 68 20 63 17.3 85 85 ESE 10 17 29.92 1013 10 16 0.01 0.25
6:55 am 06:55 Sunny 68 20 63 17 83 83 SE 6 9 29.92 1013 10 16 0.01 0.25
7:15 am 07:15 Sunny 68 20.1 62 16.7 81 81 SW 5 7 29.93 1013 10 16 0.00 0.00
7:35 am 07:35 Sunny 67 19.4 63 17.1 87 87 SW 3 6 29.93 1014 10 16 0.00 0.00
7:55 am 07:55 Sunny 67 19.5 64 17.6 89 89 SSW 3 6 29.94 1014 10 16 0.00 0.00
8:15 am 08:15 Partly Cloudy 67 19.5 64 18 91 91 Calm 29.96 1015 10 16 0.00 0.00
8:35 am 08:35 Partly Cloudy 69 20.6 65 18.6 88 88 Calm 29.96 1015 10 16 0.00 0.00
8:55 am 08:55 Sunny 70 21 64 17.9 83 83 WSW 3 6 29.96 1015 10 16 0.00 0.00
9:15 am 09:15 Partly Cloudy 71 21.7 65 18.3 81 81 S 5 7 29.97 1015 10 16 0.00 0.00
9:35 am 09:35 Partly Cloudy 72 22.4 65 18.3 78 78 S 8 13 29.98 1015 10 16 0.00 0.00
9:55 am 09:55 Partly Cloudy 72 22.4 65 18.6 79 79 S 3 6 29.99 1015 10 16 0.00 0.00
10:15 am 10:15 Sunny 74 23.2 65 18.4 75 75 SSE 3 6 29.99 1016 10 16 0.00 0.00
10:35 am 10:35 Sunny 75 23.8 65 18.4 72 72 SE 5 7 29.99 1015 10 16 0.00 0.00
10:55 am 10:55 Sunny 75 24.1 65 18.2 70 70 SSE 6 9 29.98 1015 10 16 0.00 0.00
11:15 am 11:15 Sunny 76 24.5 65 18.3 68 68 SSE 5 7 29.99 1016 10 16 0.00 0.00
11:35 am 11:35 Sunny 76 24.6 65 18.6 69 69 Calm 30.00 1016 10 16 0.00 0.00
11:55 am 11:55 Sunny 78 25.4 66 18.8 67 67 SSE 3 6 29.98 1015 10 16 0.00 0.00
12:15 pm 12:15 Sunny 79 26 65 18.6 64 64 S 6 9 29.99 1016 10 16 0.00 0.00
12:35 pm 12:35 Sunny 80 26.4 65 18.6 62 62 SSE 6 9 29.98 1015 10 16 0.00 0.00
12:55 pm 12:55 Sunny 80 26.5 65 18.6 62 62 SE 5 7 29.98 1015 10 16 0.00 0.00
1:15 pm 13:15 Sunny 80 26.9 66 18.7 61 61 S 3 6 29.98 1015 10 16 0.00 0.00
1:35 pm 13:35 Sunny 81 27.4 67 19.2 61 61 S 6 9 29.98 1015 10 16 0.00 0.00
1:55 pm 13:55 Sunny 82 27.5 68 19.8 63 63 S 6 9 29.97 1015 10 16 0.00 0.00
2:15 pm 14:15 Sunny 82 27.5 68 20.2 64 64 SSE 6 9 29.97 1015 10 16 0.00 0.00
2:35 pm 14:35 Sunny 83 28.1 68 19.9 61 61 S 6 9 29.96 1015 10 16 0.00 0.00
2:55 pm 14:55 Sunny 83 28.1 68 20 61 61 SSE 5 7 29.95 1014 10 16 0.00 0.00
3:15 pm 15:15 Sunny 83 28.5 69 20.3 61 61 S 5 7 29.95 1014 10 16 0.00 0.00
3:35 pm 15:35 Sunny 84 28.9 68 20.1 59 59 SE 7 11 29.95 1014 10 16 0.00 0.00
3:55 pm 15:55 Sunny 84 28.8 68 20.2 60 60 SE 3 6 29.94 1014 10 16 0.00 0.00
4:15 pm 16:15 Partly Cloudy 85 29.4 68 19.9 57 57 SE 6 9 29.93 1014 10 16 0.00 0.00
4:35 pm 16:35 Partly Cloudy 85 29.4 68 19.9 57 57 SE 6 9 29.93 1014 10 16 0.00 0.00
4:55 pm 16:55 Partly Cloudy 85 29.5 69 20.3 58 58 ESE 12 19 29.93 1014 10 16 0.00 0.00
5:15 pm 17:15 Sunny 85 29.3 67 19.4 55 55 SE 8 13 29.93 1014 10 16 0.00 0.00
5:35 pm 17:35 Sunny 84 28.7 68 19.9 59 59 ESE 12 19 29.93 1013 10 16 0.00 0.00
5:55 pm 17:55 Sunny 83 28.5 67 19.4 58 58 ESE 9 15 29.94 1014 10 16 0.00 0.00
6:15 pm 18:15 Sunny 83 28.3 67 19.3 58 58 ESE 10 17 29.93 1014 10 16 0.00 0.00
6:35 pm 18:35 Sunny 82 28 67 19.7 61 61 ESE 8 13 29.93 1014 10 16 0.00 0.00
6:55 pm 18:55 Sunny 82 27.9 68 20.2 63 63 ESE 9 15 29.93 1014 10 16 0.00 0.00
7:15 pm 19:15 Sunny 82 27.5 69 20.6 66 66 ESE 8 13 29.94 1014 10 16 0.00 0.00
7:35 pm 19:35 Sunny 81 27.1 70 21 69 69 ESE 8 13 29.95 1014 10 16 0.00 0.00
7:55 pm 19:55 Sunny 80 26.5 70 21.1 72 72 ESE 7 11 29.95 1014 10 16 0.00 0.00
8:15 pm 20:15 Sunny 78 25.8 71 21.4 77 77 ESE 6 9 29.96 1015 10 16 0.00 0.00
8:35 pm 20:35 Sunny 77 24.9 70 21.3 80 80 E 6 9 29.99 1015 10 16 0.00 0.00
8:55 pm 20:55 Sunny 75 24 70 21.2 84 84 E 6 9 29.99 1016 10 16 0.00 0.00
9:15 pm 21:15 Clear 74 23.6 71 21.5 88 88 E 8 13 30.01 1016 10 16 0.00 0.00
9:35 pm 21:35 Clear 74 23.2 71 21.5 90 90 ESE 7 11 30.01 1016 10 16 0.00 0.00
9:55 pm 21:55 Clear 73 23 71 21.5 91 91 ESE 5 7 30.02 1017 10 16 0.00 0.00
10:15 pm 22:15 Clear 72 22.3 70 21.1 93 93 ESE 5 7 30.03 1017 10 16 0.00 0.00
10:35 pm 22:35 Clear 72 22 70 21 94 94 ESE 7 11 30.04 1017 10 16 0.00 0.00
10:55 pm 22:55 Clear 72 22.2 69 20.7 91 91 ESE 6 9 30.06 1018 10 16 0.00 0.00
11:15 pm 23:15 Clear 72 22 69 20.6 92 92 ESE 6 9 30.06 1018 10 16 0.00 0.00
11:35 pm 23:35 Partly Cloudy 71 21.6 69 20.5 93 93 ESE 6 9 30.07 1018 10 16 0.00 0.00
11:55 pm 23:55 Partly Cloudy 71 21.5 69 20.5 94 94 ESE 6 9 30.07 1018 10 16 0.00 0.00

Powered by AerisWeather